When you browse on this site, cookies collect data to enhance your experience and personalize the content and advertising you see.
Visit our Privacy Policy to learn more. By continuing to use the site, you agree to this use of cookies and data.
  • In Hungary
  • List of Countries
  • For 7 days
  • Water Temperature
  • Weather Map
  • News
  • Weather Widgets
  • user-avatar
    Login

    Hourly Weather Wickford

    Today, 19 August, Monday

    Time Temperature Precipitation Wind Pressure Humidity
    00:00 +14°C° 0 mm 5 mps 755 mmHg 77%
    01:00 +14°C° 0 mm 5 mps 755 mmHg 78%
    02:00 +13°C° 0 mm 5 mps 755 mmHg 80%
    03:00 +13°C° 0 mm 5 mps 755 mmHg 82%
    04:00 +13°C° 0 mm 5 mps 755 mmHg 82%
    05:00 +13°C° 0 mm 5 mps 756 mmHg 82%
    06:00 +13°C° 0 mm 6 mps 756 mmHg 81%
    07:00 +15°C° 0 mm 6 mps 756 mmHg 76%
    08:00 +16°C° 0 mm 6 mps 757 mmHg 70%
    09:00 +18°C° 0 mm 7 mps 757 mmHg 64%
    10:00 +18°C° 0 mm 7 mps 757 mmHg 61%
    11:00 +20°C° 0 mm 7 mps 758 mmHg 58%
    12:00 +21°C° 0 mm 7 mps 758 mmHg 55%
    13:00 +21°C° 0.3 mm 7 mps 758 mmHg 54%
    14:00 +21°C° 0.3 mm 7 mps 758 mmHg 53%
    15:00 +21°C° 0.3 mm 7 mps 758 mmHg 52%
    16:00 +21°C° 0.2 mm 7 mps 759 mmHg 55%
    17:00 +20°C° 0.2 mm 6 mps 759 mmHg 57%
    18:00 +19°C° 0.2 mm 5 mps 759 mmHg 59%
    19:00 +17°C° 0 mm 5 mps 759 mmHg 63%
    20:00 +16°C° 0 mm 5 mps 760 mmHg 66%
    21:00 +15°C° 0 mm 5 mps 760 mmHg 70%
    22:00 +14°C° 0 mm 5 mps 761 mmHg 72%
    23:00 +14°C° 0 mm 4 mps 761 mmHg 74%

    Tomorrow, 20 August, Tuesday

    Time Temperature Precipitation Wind Pressure Humidity
    00:00 +13°C° 0 mm 4 mps 761 mmHg 77%
    01:00 +13°C° 0 mm 4 mps 761 mmHg 79%
    02:00 +12°C° 0 mm 4 mps 761 mmHg 81%
    03:00 +12°C° 0 mm 4 mps 762 mmHg 83%
    04:00 +12°C° 0 mm 3 mps 762 mmHg 83%
    05:00 +12°C° 0 mm 3 mps 762 mmHg 84%
    06:00 +12°C° 0 mm 3 mps 762 mmHg 84%
    07:00 +14°C° 0 mm 3 mps 763 mmHg 77%
    08:00 +15°C° 0 mm 4 mps 763 mmHg 70%
    09:00 +18°C° 0 mm 4 mps 763 mmHg 63%
    10:00 +18°C° 0 mm 4 mps 764 mmHg 58%
    11:00 +19°C° 0 mm 4 mps 764 mmHg 52%
    12:00 +20°C° 0 mm 4 mps 764 mmHg 47%
    13:00 +21°C° 0 mm 4 mps 765 mmHg 46%
    14:00 +21°C° 0 mm 4 mps 765 mmHg 46%
    15:00 +21°C° 0 mm 5 mps 765 mmHg 45%
    16:00 +20°C° 0 mm 4 mps 765 mmHg 48%
    17:00 +19°C° 0 mm 4 mps 765 mmHg 51%
    18:00 +19°C° 0 mm 4 mps 765 mmHg 54%
    19:00 +18°C° 0 mm 3 mps 766 mmHg 58%
    20:00 +16°C° 0 mm 3 mps 766 mmHg 62%
    21:00 +14°C° 0 mm 3 mps 767 mmHg 66%
    22:00 +14°C° 0 mm 3 mps 767 mmHg 70%
    23:00 +14°C° 0 mm 2 mps 767 mmHg 73%

    Day after tomorrow, 21 August, Wednesday

    Time Temperature Precipitation Wind Pressure Humidity
    00:00 +14°C° 0 mm 2 mps 767 mmHg 77%
    01:00 +14°C° 0 mm 2 mps 767 mmHg 79%
    02:00 +14°C° 0 mm 2 mps 767 mmHg 81%
    03:00 +14°C° 0 mm 2 mps 767 mmHg 83%
    04:00 +14°C° 0 mm 2 mps 767 mmHg 82%
    05:00 +14°C° 0 mm 2 mps 767 mmHg 81%
    06:00 +14°C° 0 mm 1 mps 767 mmHg 81%
    07:00 +16°C° 0 mm 2 mps 767 mmHg 74%
    08:00 +17°C° 0 mm 2 mps 767 mmHg 68%
    09:00 +18°C° 0 mm 2 mps 767 mmHg 61%
    10:00 +19°C° 0 mm 2 mps 767 mmHg 57%
    11:00 +20°C° 0 mm 2 mps 767 mmHg 53%
    12:00 +21°C° 0 mm 2 mps 766 mmHg 49%
    13:00 +22°C° 0 mm 3 mps 766 mmHg 49%
    14:00 +22°C° 0 mm 3 mps 766 mmHg 49%
    15:00 +22°C° 0 mm 4 mps 765 mmHg 49%
    16:00 +21°C° 0 mm 4 mps 765 mmHg 53%
    17:00 +20°C° 0 mm 4 mps 765 mmHg 56%
    18:00 +20°C° 0 mm 4 mps 765 mmHg 60%
    19:00 +19°C° 0 mm 4 mps 765 mmHg 63%
    20:00 +17°C° 0 mm 3 mps 765 mmHg 65%
    21:00 +16°C° 0 mm 3 mps 765 mmHg 67%
    22:00 +16°C° 0 mm 3 mps 765 mmHg 69%
    23:00 +14°C° 0 mm 3 mps 765 mmHg 72%

    22 August, Thursday

    Time Temperature Precipitation Wind Pressure Humidity
    00:00 +14°C° 0 mm 3 mps 765 mmHg 74%
    01:00 +14°C° 0 mm 3 mps 765 mmHg 75%
    02:00 +13°C° 0 mm 3 mps 764 mmHg 76%
    03:00 +13°C° 0 mm 3 mps 764 mmHg 76%
    04:00 +13°C° 0 mm 3 mps 764 mmHg 76%
    05:00 +14°C° 0 mm 3 mps 764 mmHg 76%
    06:00 +14°C° 0 mm 3 mps 765 mmHg 76%
    07:00 +15°C° 0 mm 4 mps 765 mmHg 72%
    08:00 +18°C° 0 mm 4 mps 765 mmHg 68%
    09:00 +19°C° 0 mm 5 mps 765 mmHg 64%
    10:00 +20°C° 0 mm 5 mps 765 mmHg 62%
    11:00 +21°C° 0 mm 5 mps 765 mmHg 61%
    12:00 +22°C° 0 mm 5 mps 765 mmHg 60%
    13:00 +22°C° 0 mm 5 mps 765 mmHg 59%
    14:00 +22°C° 0 mm 4 mps 764 mmHg 58%
    15:00 +23°C° 0 mm 4 mps 764 mmHg 57%
    16:00 +22°C° 0 mm 4 mps 764 mmHg 60%
    17:00 +22°C° 0 mm 5 mps 764 mmHg 63%
    18:00 +21°C° 0 mm 5 mps 764 mmHg 66%
    19:00 +20°C° 0 mm 4 mps 765 mmHg 72%
    20:00 +19°C° 0 mm 4 mps 765 mmHg 78%
    21:00 +18°C° 0 mm 4 mps 765 mmHg 84%
    22:00 +17°C° 0 mm 3 mps 765 mmHg 86%
    23:00 +17°C° 0 mm 3 mps 765 mmHg 88%

    23 August, Friday

    Time Temperature Precipitation Wind Pressure Humidity
    00:00 +16°C° 0 mm 3 mps 765 mmHg 90%
    01:00 +16°C° 0 mm 3 mps 765 mmHg 91%
    02:00 +16°C° 0 mm 3 mps 765 mmHg 92%
    03:00 +16°C° 0 mm 3 mps 764 mmHg 92%
    04:00 +16°C° 0 mm 3 mps 764 mmHg 92%
    05:00 +16°C° 0 mm 2 mps 765 mmHg 91%
    06:00 +16°C° 0 mm 2 mps 765 mmHg 90%
    07:00 +18°C° 0 mm 3 mps 765 mmHg 82%
    08:00 +19°C° 0 mm 3 mps 765 mmHg 73%
    09:00 +21°C° 0 mm 3 mps 765 mmHg 65%
    10:00 +22°C° 0 mm 3 mps 765 mmHg 60%
    11:00 +24°C° 0 mm 3 mps 765 mmHg 55%
    12:00 +25°C° 0 mm 2 mps 765 mmHg 50%
    13:00 +26°C° 0 mm 3 mps 764 mmHg 49%
    14:00 +26°C° 0 mm 3 mps 764 mmHg 48%
    15:00 +26°C° 0 mm 3 mps 764 mmHg 47%
    16:00 +26°C° 0 mm 3 mps 763 mmHg 52%
    17:00 +25°C° 0 mm 2 mps 763 mmHg 56%
    18:00 +24°C° 0 mm 2 mps 763 mmHg 61%
    19:00 +23°C° 0 mm 2 mps 763 mmHg 64%
    20:00 +20°C° 0 mm 2 mps 763 mmHg 68%
    21:00 +19°C° 0 mm 2 mps 763 mmHg 72%
    22:00 +20°C° 0 mm 1 mps 763 mmHg 73%
    23:00 +19°C° 0 mm 1 mps 763 mmHg 74%

    24 August, Saturday

    Time Temperature Precipitation Wind Pressure Humidity
    00:00 +19°C° 0 mm 1 mps 763 mmHg 76%
    01:00 +19°C° 0 mm 1 mps 762 mmHg 76%
    02:00 +18°C° 0 mm 1 mps 762 mmHg 77%
    03:00 +18°C° 0 mm 1 mps 761 mmHg 77%
    04:00 +18°C° 0 mm 1 mps 761 mmHg 76%
    05:00 +18°C° 0 mm 1 mps 761 mmHg 75%
    06:00 +18°C° 0 mm 1 mps 761 mmHg 73%
    07:00 +20°C° 0 mm 1 mps 761 mmHg 66%
    08:00 +22°C° 0 mm 1 mps 761 mmHg 58%
    09:00 +23°C° 0 mm 1 mps 761 mmHg 51%
    10:00 +24°C° 0 mm 1 mps 760 mmHg 47%
    11:00 +25°C° 0 mm 1 mps 760 mmHg 44%
    12:00 +26°C° 0 mm 2 mps 760 mmHg 40%
    13:00 +27°C° 0 mm 2 mps 759 mmHg 39%
    14:00 +27°C° 0 mm 2 mps 759 mmHg 39%
    15:00 +27°C° 0 mm 3 mps 759 mmHg 38%
    16:00 +26°C° 0 mm 3 mps 759 mmHg 44%
    17:00 +25°C° 0 mm 3 mps 758 mmHg 50%
    18:00 +24°C° 0 mm 2 mps 758 mmHg 56%
    19:00 +23°C° 0 mm 2 mps 758 mmHg 59%
    20:00 +21°C° 0 mm 2 mps 758 mmHg 62%
    21:00 +21°C° 0 mm 1 mps 759 mmHg 65%
    22:00 +20°C° 0 mm 1 mps 759 mmHg 66%
    23:00 +20°C° 0 mm 1 mps 758 mmHg 66%
    Show more